sat.trackr.live / text

‹ back to catalog

STARLINK-35176

NORAD 65662 · 2025-211L

PAYLOAD ACTIVE UNKNOWN

§ Identity

Operator
Country
US
Launch date
2025-09-19
Launch site
AFWTR
Launch vehicle
Mass (kg)
RCS (m²)

Purposes: comms

External: N2YO · Heavens-Above · Gunter

§ Orbital elements

Epoch: 2026-05-25T02:59:12.069600Z

Period
95.64 min
Inclination
97.4471°
Eccentricity
0.0002195
Mean motion
15.05654816 rev/d
Perigee alt
548.0 km
Apogee alt
551.0 km
Semi-major
6,927.6 km
B*
2.3067e-4
RAAN
189.0509°
Arg perigee
140.8501°
Mean anomaly
219.2885°
Rev number
3,854

§ Raw data

STARLINK-351761 65662U 25211L   26145.12444525  .00003272  00000+0  23067-3 0  99952 65662  97.4471 189.0509 0002195 140.8501 219.2885 15.05654816 38543

JSON: /api/v1/satellites/65662 · /tle

For live sub-satellite position, see the globe view (requires WebGL).

§ Visibility from observer

Set your observer location to see the next 7 days of passes ≥ 10°. The values pass through the URL so the page stays shareable.

No JS? Fill the form by hand. The geolocation button needs JavaScript.